TIME,DELAY(SENSOR),PRES,OXYGEN,RAWTEMP,T(OPTODE),TCPHASE,FLUOR,BETA(BETA700),BETA(BETA412),BETA(BETA440),CDOM,C(CSC),ED(ED411.90),ED(ED443.80),ED(ED489.40),ED(ED554.70),LU(LU412.20),LU(LU443.80),LU(LU489.40),LU(LU555.00),COMP,TILTX,TILTY,CHECK
1339538440,5804,839.7600097656250000,179.5066070556640600,470.8606872558594000,8.7895317077636720,39.2957115173339840,51,108,103,78,75,15448,2147445796,2147790107,2147580013,2147827510,2147309915,2147455734,2147757403,2148271917,3210,6,14,7267
1339542036,5803,4.0999999046325680,216.5269927978515600,529.9232788085938000,6.9403319358825680,38.0156898498535160,50,106,103,78,75,15442,2147439853,2147799350,2147585947,2147831835,2147309577,2147451254,2147767798,2148280036,603,6,14,11392
1339545636,5805,7.5000000000000000,225.0251007080078000,537.1088256835938000,6.7136898040771480,37.6706504821777340,51,106,105,83,77,15432,2147435913,2147802816,2147586313,2147833078,2147306358,2147445659,2147769325,2148279277,121,6,15,6341
1339549236,5805,846.0000000000000000,228.1116943359375000,539.1578979492188000,6.6489849090576170,37.5399513244628900,51,106,102,79,75,15432,2147435446,2147797412,2147588096,2147833152,2147311076,2147451913,2147767195,2148280987,124,6,15,18437
1339552836,5804,8.6000003814697270,228.6842041015625000,540.3784790039062000,6.6104278564453125,37.5311698913574200,51,107,103,78,78,15427,2147435565,2147799021,2147583680,2147834185,2147309741,2147449005,2147770550,2148278381,140,6,14,60244
1339556436,5805,993.0000000000000000,230.0074005126953000,540.4613037109375000,6.6078109741210940,37.4622383117675800,51,107,104,78,77,15431,2147438646,2147799241,2147584182,2147832164,2147308598,2147449874,2147774939,2148279049,511,6,15,6939
1339560036,5804,983.0000000000000000,227.3600006103515600,539.5631103515625000,6.6361870765686035,37.5884895324707000,51,105,103,79,78,15427,2147435712,2147799689,2147586998,2147832621,2147307364,2147448356,2147768658,2148279149,2551,6,15,38002
1339563636,5806,9.1000003814697270,228.3233032226562500,540.6350097656250000,6.6023240089416500,37.5557212829589840,52,115,104,81,77,15425,2147432950,2147797924,2147582546,2147834560,2147308187,2147449252,2147772224,2148279606,732,6,15,46125
1339567236,5805,10.6999998092651370,227.6934967041015600,540.8386840820312000,6.5958881378173830,37.5929489135742200,51,108,105,79,77,15426,2147431634,2147801901,2147585024,2147833865,2147307812,2147445193,2147768256,2148277138,634,6,14,43971
1339570836,5801,9.3999996185302730,228.6773071289062500,541.0615234375000000,6.5888462066650390,37.5441894531250000,51,107,103,80,77,15425,2147433947,2147804470,2147583433,2147833563,2147306953,2147443538,2147769435,2148279378,3056,6,15,21632
1339574436,5801,9.1999998092651370,228.7882995605468800,541.7501831054688000,6.5670809745788570,37.5507087707519500,50,106,103,78,77,15423,2147435154,2147803766,2147584393,2147831606,2147308004,2147451721,2147772160,2148280018,3588,6,14,46161
1339578036,5805,990.0000000000000000,229.5254058837890600,544.0991821289062000,6.4928231239318850,37.5532798767089840,51,105,104,79,76,15422,2147434304,2147798436,2147587611,2147835428,2147307812,2147450660,2147770843,2148278811,95,6,14,38783
1339581636,5806,9.3000001907348630,232.4302978515625000,546.2050170898438000,6.4262118339538570,37.4374809265136700,51,107,103,79,77,15421,2147432091,2147797586,2147587053,2147837184,2147305362,2147448137,2147770816,2148279204,40,6,14,19990
1339585236,5803,985.0000000000000000,234.4647979736328000,547.0927124023438000,6.3981227874755860,37.3458709716796900,51,108,104,79,76,15423,2147435026,2147800731,2147586102,2147833627,2147308434,2147446957,2147774345,2148280210,3532,6,15,8902
1339588836,5804,10.1000003814697270,233.8455047607422000,546.7836914062500000,6.4079017639160160,37.3728294372558600,51,106,104,78,76,15419,2147435264,2147803017,2147584585,2147835977,2147306477,2147452105,2147768786,2148278564,3517,6,15,54286
1339592436,5803,10.3999996185302730,233.3677978515625000,545.2106933593750000,6.4576678276062010,37.3690910339355500,51,108,103,79,75,15416,2147433856,2147800493,2147588288,2147832694,2147308214,2147447469,2147768786,2148278912,147,6,14,50495
1339596036,5804,1058.0000000000000000,231.5762023925781200,544.7772216796875000,6.4713778495788570,37.4565582275390600,52,107,103,79,77,15416,2147434605,2147801636,2147585901,2147834020,2147305865,2147446262,2147770066,2148282148,3525,6,15,31219
1339599636,5804,162.0000000000000000,231.3726043701172000,544.3204956054688000,6.4858250617980960,37.4588394165039060,51,107,103,78,77,15415,2147434761,2147799149,2147587830,2147835602,2147307117,2147446509,2147764864,2148278409,3512,6,15,18473
1339603236,5804,1051.0000000000000000,229.5738067626953000,544.0103149414062000,6.4956340789794920,37.5497016906738300,52,108,104,79,77,15417,2147434038,2147798217,2147585462,2147833270,2147304713,2147447469,2147770496,2148280320,3269,6,15,25287
1339606836,5805,10.6000003814697270,230.2557983398437500,544.1790771484375000,6.4902939796447750,37.5163688659668000,51,107,103,80,76,15415,2147435392,2147798912,2147588827,2147833078,2147305316,2147454217,2147771428,2148280054,3325,6,15,49479
1339610436,5800,10.6000003814697270,229.4889984130859400,544.4976196289062000,6.4802231788635250,37.5627403259277340,51,108,105,78,76,15411,2147431808,2147799360,2147586596,2147834770,2147306578,2147449590,2147770459,2148281892,3471,6,15,49417
1339614036,5805,10.0000000000000000,231.4790039062500000,546.5913696289062000,6.4139862060546875,37.4947204589843750,51,106,102,78,76,15407,2147438290,2147800722,2147587510,2147832237,2147309065,2147449846,2147773604,2148280566,3386,6,15,49380
1339617636,5807,1060.0000000000000000,231.6493072509765600,547.5347290039062000,6.3841361999511720,37.5026702880859400,50,108,104,78,76,15411,2147435300,2147802331,2147585380,2147833060,2147305673,2147451520,2147774738,2148280731,28,6,14,47676
1339621236,5804,10.8999996185302730,232.6952056884765600,548.8016967773438000,6.3440279960632320,37.4697418212890600,51,108,104,79,78,15408,2147432356,2147800969,2147585069,2147835190,2147304164,2147448036,2147770212,2148283958,3313,6,15,33191
1339624836,5804,1039.0000000000000000,234.8188934326172000,548.1627807617188000,6.3642520904541020,37.3470687866210940,50,108,104,78,76,15406,2147434249,2147800832,2147585910,2147835026,2147305014,2147448320,2147773010,2148282889,312,6,15,1725
1339628436,5808,990.0000000000000000,234.2946929931640600,548.4927978515625000,6.3538069725036620,37.3801498413085940,50,107,104,80,76,15404,2147436342,2147799003,2147587264,2147832356,2147308992,2147445897,2147770112,2148278016,95,6,15,58680
1339632036,5804,1037.0000000000000000,233.2984008789062500,548.1923828125000000,6.3633160591125490,37.4275398254394500,51,104,102,79,77,15402,2147433846,2147798436,2147587501,2147834532,2147308809,2147453952,2147768786,2148281600,3592,6,15,1505
1339635636,5803,10.1999998092651370,233.1755981445312500,546.4885253906250000,6.4172420501708980,37.4028511047363300,51,108,104,79,76,15406,2147432173,2147797997,2147586870,2147836553,2147307501,2147446902,2147775808,2148282011,3233,6,15,21276
1339639236,5805,11.1999998092651370,231.9976959228515600,545.3649291992188000,6.4527888298034670,37.4444389343261700,50,105,103,78,77,15404,2147432740,2147800201,2147585718,2147834678,2147306925,2147447689,2147770980,2148279625,6,6,14,30273
1339642836,5802,1005.0000000000000000,229.4096069335937500,542.6593017578125000,6.5383467674255370,37.5339508056640600,51,106,103,78,76,15401,2147434669,2147801033,2147586569,2147834441,2147306048,2147450432,2147770011,2148279286,2619,6,15,18608
1339646436,5806,1089.0000000000000000,230.1461944580078000,544.2755737304688000,6.4872422218322750,37.5234298706054700,51,105,103,79,76,15400,2147435702,2147797796,2147583936,2147832054,2147305298,2147448676,2147767698,2148281042,3217,6,15,45456
1339650036,5807,11.0000000000000000,231.0066070556640600,545.0900268554688000,6.4614849090576170,37.4925498962402340,51,107,104,78,77,15402,2147432941,2147798052,2147584740,2147830619,2147304850,2147447862,2147770450,2148280640,189,6,15,14870
1339653636,5805,11.3000001907348630,230.6667938232422000,543.7473144531250000,6.5039482116699220,37.4857101440429700,51,109,103,79,77,15402,2147432704,2147799826,2147586733,2147832603,2147306770,2147442313,2147771446,2148281225,3386,6,15,54932
1339657236,5805,10.6999998092651370,231.8480987548828000,546.3123168945312000,6.4228172302246090,37.4696693420410160,51,106,103,78,76,15400,2147431186,2147798720,2147586944,2147833033,2147304813,2147449417,2147769773,2148283401,95,6,15,39810
1339660836,5803,10.3000001907348630,234.7559051513672000,547.9088134765625000,6.3722929954528810,37.3456993103027340,52,107,103,79,76,15399,2147431387,2147801517,2147587008,2147836361,2147303872,2147451392,2147770459,2148280960,3564,6,15,2999
1339664436,5804,10.0000000000000000,233.9459075927734400,548.2479858398438000,6.3615570068359375,37.3948516845703100,52,107,104,80,77,15395,2147432722,2147804187,2147587017,2147834916,2147308790,2147448228,2147772754,2148282029,3013,6,15,43944
1339668036,5805,10.1000003814697270,235.4674987792968800,548.7186279296875000,6.3466591835021970,37.3228607177734400,51,105,104,79,77,15396,2147431213,2147800557,2147588178,2147834569,2147307401,2147445668,2147774482,2148279213,309,6,15,25807
1339671636,5805,1080.0000000000000000,232.0848999023437500,548.8010864257812000,6.3440480232238770,37.5023002624511700,51,111,104,78,77,15397,2147430665,2147797229,2147586267,2147834916,2147306194,2147448182,2147769481,2148281673,3473,6,15,49299
1339675236,5806,10.0000000000000000,234.4037017822265600,548.5576782226562000,6.3517532348632810,37.3763389587402340,52,106,102,79,76,15296,2147433590,2147802322,2147590089,2147839241,2147308992,2147448987,2147771949,2148278701,3215,6,15,5428
1339678836,5804,1124.0000000000000000,231.6286010742187500,548.3021850585938000,6.3598418235778810,37.5179481506347660,51,104,104,78,76,15396,2147429824,2147797897,2147589942,2147836516,2147307328,2147450797,2147764507,2148276955,3441,6,15,46568
1339682436,5801,1054.0000000000000000,234.3052062988281200,547.0548706054688000,6.3993191719055180,37.3536415100097660,51,110,104,78,78,15394,2147432841,2147801517,2147585764,2147834742,2147304932,2147446006,2147769408,2148282121,606,6,15,33234
1339682755,5801,1170.0000000000000000,233.9877929687500000,546.2598876953125000,6.4244771003723145,37.3562393188476560,51,106,104,79,77,15391,2147432347,2147798134,2147586185,2147833014,2147306505,2147447862,2147767890,2148282121,583,6,15,4720
